Change the Weather History Date:

Friday, August 15, 2014

  Actual Average Record
Temperature  
Mean Temperature 54 °F -  
Max Temperature 66 °F 75 °F 91 °F (2002)
Min Temperature 42 °F 48 °F 39 °F (1997)
Degree Days  
Heating Degree Days 11    
Growing Degree Days 4 (Base 50)    
Moisture  
Dew Point 47 °F    
Average Humidity 86    
Maximum Humidity 100    
Minimum Humidity 52    
Precipitation  
Precipitation 0.00 in - - ()
Sea Level Pressure  
Sea Level Pressure 29.88 in    
Wind  
Wind Speed 1 mph (SSE)    
Max Wind Speed 6 mph    
Max Gust Speed -    
Visibility 7 miles    
Events Fog    
Averages and records for this station are not official NWS values.
T = Trace of Precipitation, MM = Missing Value Source: NWS Daily Summary

Daily Weather History Graph

Daily Weather History Graph

Search for Another Location

Airport or City:

Trip Planner

Search our weather history database for the weather conditions in past years. The results will help you decide how hot, cold, wet, or windy it might be!

Date:

Astronomy

Aug. 15, 2014 Rise Set
Actual Time 5:47 AM EDT 7:50 PM EDT
Civil Twilight 5:15 AM EDT 8:21 PM EDT
Nautical Twilight 4:36 AM EDT 9:00 PM EDT
Astronomical Twilight 3:53 AM EDT 9:43 PM EDT
Moon 10:34 PM EDT (8/15) 11:42 AM EDT (8/15)
Length of Visible Light 15h 06m
Length of Day
14h 02m
Waning Gibbous, 69% of the Moon is Illuminated
Aug 15
Waning Gibbous
Aug 17
Last Quarter
Aug 25
New
Sep 2
First Quarter
Sep 8
Full

Hourly Weather History & Observations

Time (EDT) Temp. Windchill Dew Point Humidity Pressure Visibility Wind Dir Wind Speed Gust Speed Precip Events Conditions
12:47 AM 44.6 °F 43.1 °F 42.8 °F 93% 29.88 in 10.0 mi ENE 3.5 mph - N/A   Scattered Clouds
12:52 AM 45.0 °F 43.5 °F 43.0 °F 93% 29.89 in 10.0 mi NNE 3.5 mph - N/A   Partly Cloudy
1:52 AM 43.0 °F - 42.1 °F 97% 29.89 in 1.8 mi Calm Calm - N/A   Mostly Cloudy
1:55 AM 42.1 °F - 42.1 °F 100% 29.88 in 0.8 mi Calm Calm - N/A   Mostly Cloudy
2:52 AM 45.0 °F - 44.1 °F 97% 29.88 in 0.5 mi Calm Calm - N/A Fog Fog
3:02 AM 44.1 °F - 44.1 °F 100% 29.87 in 0.2 mi Calm Calm - N/A Fog Fog
3:21 AM 43.0 °F - 43.0 °F 100% 29.87 in 1.0 mi Calm Calm - N/A   Mist
3:31 AM 44.1 °F - 43.0 °F 96% 29.87 in 0.2 mi Calm Calm - N/A Fog Fog
3:52 AM 45.0 °F - 44.1 °F 97% 29.88 in 0.2 mi Calm Calm - N/A Fog Fog
4:52 AM 44.1 °F - 44.1 °F 100% 29.88 in 0.5 mi Calm Calm - N/A Fog Fog
5:01 AM 45.0 °F - 44.1 °F 97% 29.87 in 0.2 mi Calm Calm - N/A Fog Fog
5:17 AM 44.1 °F 42.5 °F 44.1 °F 100% 29.88 in 0.5 mi SE 3.5 mph - N/A Fog Fog
5:26 AM 45.0 °F - 44.1 °F 97% 29.88 in 1.5 mi Calm Calm - N/A   Overcast
5:31 AM 45.0 °F - 44.1 °F 97% 29.88 in 3.0 mi Calm Calm - N/A   Overcast
5:52 AM 45.0 °F - 44.1 °F 97% 29.88 in 10.0 mi Calm Calm - N/A   Overcast
6:50 AM 46.4 °F - 44.6 °F 93% 29.89 in 10.0 mi Calm Calm - N/A   Mostly Cloudy
6:52 AM 46.0 °F - 45.0 °F 96% 29.90 in 10.0 mi Calm Calm - N/A   Mostly Cloudy
7:52 AM 50.0 °F - 48.0 °F 93% 29.90 in 10.0 mi Calm Calm - N/A   Scattered Clouds
8:52 AM 57.0 °F - 52.0 °F 83% 29.89 in 10.0 mi SE 4.6 mph - N/A   Partly Cloudy
10:52 AM 63.0 °F - 48.9 °F 60% 29.87 in 10.0 mi Calm Calm - N/A   Scattered Clouds
11:52 AM 66.0 °F - 48.0 °F 52% 29.86 in 10.0 mi SSW 4.6 mph - N/A   Mostly Cloudy
12:52 PM 64.9 °F - 50.0 °F 58% 29.86 in 10.0 mi Calm Calm - N/A   Overcast
1:52 PM 64.9 °F - 51.1 °F 61% 29.86 in 10.0 mi Calm Calm - N/A   Overcast
2:52 PM 64.0 °F - 52.0 °F 65% 29.86 in 10.0 mi SSW 5.8 mph - N/A   Overcast
3:52 PM 63.0 °F - 51.1 °F 65% 29.86 in 10.0 mi SW 5.8 mph - N/A   Overcast
4:52 PM 63.0 °F - 52.0 °F 67% 29.86 in 10.0 mi NNW 3.5 mph - N/A   Overcast
5:52 PM 63.0 °F - 52.0 °F 67% 29.87 in 10.0 mi Calm Calm - N/A   Overcast
6:52 PM 62.1 °F - 52.0 °F 70% 29.87 in 10.0 mi Calm Calm - N/A   Overcast
7:52 PM 59.0 °F - 55.9 °F 90% 29.87 in 10.0 mi Calm Calm - N/A   Overcast
8:52 PM 57.9 °F - 52.0 °F 81% 29.90 in 10.0 mi Variable 4.6 mph - N/A   Overcast
9:52 PM 57.0 °F - 53.1 °F 87% 29.90 in 10.0 mi Calm Calm - N/A   Overcast
10:52 PM 55.9 °F - 53.1 °F 90% 29.89 in 10.0 mi Calm Calm - N/A   Overcast
11:52 PM 55.0 °F - 53.1 °F 93% 29.90 in 10.0 mi Calm Calm - N/A   Overcast